Location: Austin
(30.3000°N, 97.7500°W)
Time: 07:34:40
(UTC-05:00)

Atlas Centaur 2 - Pass Details

Date: 16 June 2025
Orbit: 456 x 1256 km, 30.4° (Epoch: 07 July)

Event Time Altitude Azimuth Distance (km) Brightness Sun altitude
Exits shadow 02:58:08 42° 119° (ESE) 1,698 3.6 -32.5°
Drops below altitude 10° 03:04:04 10° 85° (E) 3,228 5.5 -31.9°
Sets 03:07:06 0° 80° (E) 4,184 6.2 -31.7°
